Stations météo

Publicité
Biscarosse, France (7503): Température de l'air & dewpoint: 17.01.2017 05:00:00 - 23.01.2017 05:00:00 (CET)Biscarosse, France (7503): Température de l'air 5cm: 17.01.2017 05:00:00 - 23.01.2017 05:00:00 (CET)Biscarosse, France (7503): Température de l'air -20cm & Température de l'air -100cm: 17.01.2017 05:00:00 - 23.01.2017 05:00:00 (CET)Biscarosse, France (7503): Vitesse du vent & gusts: 17.01.2017 05:00:00 - 23.01.2017 05:00:00 (CET)Biscarosse, France (7503): Direction du vent: 17.01.2017 05:00:00 - 23.01.2017 05:00:00 (CET)Biscarosse, France (7503): reduced air pressure: 17.01.2017 05:00:00 - 23.01.2017 05:00:00 (CET)Biscarosse, France (7503): visibility: 17.01.2017 05:00:00 - 23.01.2017 05:00:00 (CET)Biscarosse, France (7503): Ensoleillement: 17.01.2017 05:00:00 - 23.01.2017 05:00:00 (CET)Biscarosse, France (7503): Quantités de précipitations: 17.01.2017 05:00:00 - 23.01.2017 05:00:00 (CET)
Date & Time tt [°C] td [°C] tt 5cm [°C] tt -20cm [°C] tt -100cm [°C] ff [km/h] ff [knt] fx [km/h] fx [knt] dd ppp [hPa] vv [km] sd [min] rr [mm]
23.01.2017 05:00:00 0,9 -0,4 -0,7 3,7 7,9 2 1 16 8 ENE 1022,4 5 0 0,0
23.01.2017 04:00:00 0,8 -0,5 -0,1 3,9 7,9 10 5 15 8 E 1022,4 6 0 0,0
23.01.2017 03:00:00 0,9 -1,2 0,1 4,0 7,9 11 6 17 9 E 1022,6 10 0 0,0
23.01.2017 02:00:00 1,9 -0,8 1,1 4,1 7,9 12 6 20 11 E 1022,6 13 0 0,0
23.01.2017 01:00:00 2,1 -1,0 0,9 4,3 7,9 11 6 21 11 E 1022,6 13 0 0,0
23.01.2017 00:00:00 2,3 -2,0 1,2 4,4 7,9 9 5 18 10 E 1022,7 14 0 0,0
22.01.2017 23:00:00 2,5 -1,5 1,6 4,5 7,9 10 6 18 10 E 1022,7 14 0 0,0
22.01.2017 22:00:00 3,4 0,6 2,8 4,6 7,9 13 7 19 10 E 1022,5 13 0 0,0
22.01.2017 21:00:00 3,9 0,2 2,7 4,6 7,9 8 4 11 6 E 1022,4 20 0 0,0
22.01.2017 20:00:00 4,0 0,3 3,1 4,6 7,9 6 3 10 5 ESE 1022,3 20 0 0,0
22.01.2017 19:00:00 4,1 0,8 3,0 4,6 7,9 5 3 8 5 SE 1021,9 17 0 0,0
22.01.2017 18:00:00 5,3 0,8 4,5 4,5 7,9 6 3 9 5 E 1021,8 17 25 0,0
22.01.2017 17:00:00 6,4 1,5 7,1 4,3 7,9 3 2 14 7 SSE 1021,2 20 2 0,0
22.01.2017 16:00:00 7,3 2,0 7,4 4,1 7,9 4 2 18 10 ESE 1021,0 16 0 0,0
22.01.2017 15:00:00 6,8 2,3 6,9 3,8 7,9 14 7 17 9 NW 1020,1 13 0 0,0
22.01.2017 14:00:00 6,2 1,3 7,4 3,6 7,9 2 1 7 4 SSE 1021,4 20 0 0,0
22.01.2017 13:00:00 5,8 0,9 7,1 3,4 7,9 6 3 10 5 E 1022,1 20 0 0,0
22.01.2017 12:00:00 6,0 1,1 6,8 3,3 7,9 3 2 8 4 ENE 1022,4 20 0 0,0
22.01.2017 11:00:00 5,0 -0,4 5,4 3,2 7,9 3 1 6 3 NNE 1022,1 20 23 0,0
22.01.2017 10:00:00 3,7 -0,7 0,9 3,3 7,9 5 3 7 4 ENE 1021,9 20 6 0,0
22.01.2017 09:00:00 2,0 -2,0 0,2 3,3 7,9 8 4 10 6 E 1021,5 20 0 0,0
22.01.2017 08:00:00 3,7 -2,3 0,4 3,4 7,9 5 3 8 4 ENE 1021,3 20 0 0,0
22.01.2017 07:00:00 3,1 -1,7 1,0 3,5 7,9 7 4 15 8 E 1021,3 20 0 0,0
22.01.2017 06:00:00 3,4 -1,0 1,7 3,6 7,9 11 6 16 9 E 1021,4 19 0 0,0
22.01.2017 05:00:00 3,4 -1,0 1,3 3,7 7,9 13 7 19 10 E 1021,1 19 0 0,0
22.01.2017 04:00:00 3,4 -0,4 1,1 3,8 7,9 12 7 17 9 E 1021,4 20 0 0,0
22.01.2017 03:00:00 3,4 -0,3 1,5 3,9 7,9 12 6 17 9 E 1021,5 20 0 0,0
22.01.2017 02:00:00 3,9 0,6 2,1 4,0 7,9 11 6 16 9 E 1021,9 20 0 0,0
22.01.2017 01:00:00 4,1 0,8 1,3 4,2 7,9 10 5 11 6 E 1022,5 20 0 0,0
22.01.2017 00:00:00 3,7 0,4 0,7 4,4 7,9 8 5 9 5 ENE 1022,7 20 0 0,0
21.01.2017 23:00:00 4,1 0,2 1,0 4,5 7,9 6 3 11 6 E 1022,6 20 0 0,0
21.01.2017 22:00:00 4,5 0,4 2,3 4,6 7,9 9 5 16 9 E 1022,4 20 0 0,0
21.01.2017 21:00:00 4,5 0,3 1,6 4,8 8,0 6 3 8 5 E 1022,4 20 0 0,0
21.01.2017 20:00:00 5,8 0,5 3,2 4,8 8,0 6 3 14 8 ENE 1022,4 20 0 0,0
21.01.2017 19:00:00 6,6 1,3 4,2 4,8 8,0 9 5 11 6 E 1022,0 20 0 0,0
21.01.2017 18:00:00 8,8 1,2 6,7 4,6 8,0 6 3 13 7 E 1021,6 20 0 0,0
21.01.2017 17:00:00 11,5 1,4 11,5 4,2 8,0 6 3 17 9 ESE 1021,2 20 57 0,0
21.01.2017 16:00:00 12,1 1,1 12,8 3,8 8,0 7 4 21 11 ESE 1021,1 20 60 0,0
21.01.2017 15:00:00 11,8 1,7 14,8 3,2 8,1 7 4 25 13 ESE 1021,0 20 60 0,0
21.01.2017 14:00:00 10,1 1,2 12,7 2,7 8,0 11 6 26 14 ESE 1021,4 20 60 0,0
21.01.2017 13:00:00 8,8 0,7 11,4 2,5 8,0 13 7 29 15 ESE 1022,2 20 60 0,0
21.01.2017 12:00:00 7,6 0,1 8,5 2,5 8,1 14 8 27 15 ESE 1023,1 20 60 0,0
21.01.2017 11:00:00 5,6 -1,3 5,7 2,5 8,1 7 4 16 9 E 1023,6 20 60 0,0
21.01.2017 10:00:00 3,3 -2,2 2,3 2,5 8,1 8 5 26 14 ESE 1023,2 20 60 0,0
21.01.2017 09:00:00 2,0 -2,5 1,1 2,5 8,1 15 8 31 17 E 1022,6 20 2 0,0
21.01.2017 08:00:00 2,0 -2,3 0,2 2,6 8,1 9 5 20 11 E 1022,6 20 0 0,0
21.01.2017 07:00:00 1,9 -2,1 -0,1 2,6 8,1 10 5 22 12 E 1022,6 20 0 0,0
21.01.2017 06:00:00 1,3 -2,1 0,0 2,7 8,1 10 6 21 11 E 1023,0 20 0 0,0
21.01.2017 05:00:00 2,1 -1,5 0,2 2,7 8,2 13 7 22 12 E 1023,0 20 0 0,0
21.01.2017 04:00:00 2,1 -1,5 0,1 2,8 8,2 10 6 16 9 E 1023,4 20 0 0,0
21.01.2017 03:00:00 1,6 -0,8 -0,4 2,9 8,2 6 4 13 7 ENE 1023,4 20 0 0,0
21.01.2017 02:00:00 1,7 -0,9 -1,3 2,9 8,2 6 4 12 7 NE 1023,7 20 0 0,0
21.01.2017 01:00:00 1,4 -1,7 -0,6 3,0 8,2 6 3 10 6 NE 1023,9 20 0 0,0
21.01.2017 00:00:00 1,9 -1,9 -0,3 3,1 8,2 6 4 10 5 NNE 1024,4 20 0 0,0
20.01.2017 23:00:00 1,8 -1,8 -0,7 3,1 8,2 4 2 9 5 ENE 1024,4 20 0 0,0
20.01.2017 22:00:00 2,3 -1,5 -0,1 3,1 8,3 9 5 13 7 E 1024,4 20 0 0,0
20.01.2017 21:00:00 2,6 -1,4 0,0 3,2 8,3 0 0 10 5 N 1024,6 20 0 0,0
20.01.2017 20:00:00 5,1 0,3 3,3 3,1 8,3 7 4 13 7 E 1024,5 20 0 0,0
20.01.2017 19:00:00 6,2 -0,3 5,0 3,0 8,4 7 4 17 9 E 1024,2 20 0 0,0
20.01.2017 18:00:00 7,3 0,0 6,1 2,7 8,4 11 6 30 16 E 1023,8 20 2 0,0
20.01.2017 17:00:00 9,1 0,3 8,7 2,4 8,4 15 8 42 23 E 1023,5 20 57 0,0
20.01.2017 16:00:00 9,7 0,3 10,1 2,2 8,4 15 8 36 19 ESE 1023,7 20 60 0,0
20.01.2017 15:00:00 9,7 -0,2 13,0 2,1 8,5 15 8 36 19 E 1023,7 20 60 0,0
20.01.2017 14:00:00 7,9 -1,4 10,1 2,0 8,5 10 6 26 14 ENE 1024,4 20 60 0,0
20.01.2017 13:00:00 4,9 -2,5 6,8 2,0 8,5 12 7 27 15 E 1025,5 17 60 0,0
20.01.2017 12:00:00 3,7 -3,1 5,6 2,0 8,5 13 7 24 13 E 1026,1 15 60 0,2
20.01.2017 11:00:00 1,2 -3,7 2,1 2,0 8,5 6 3 10 6 E 1027,0 9 60 0,0
20.01.2017 10:00:00 -1,1 -3,6 -2,6 2,1 8,6 3 2 7 4 E 1026,8 6 60 0,0
20.01.2017 09:00:00 -3,1 -4,4 -4,3 2,1 8,6 6 4 15 8 ENE 1026,6 5 1 0,0
20.01.2017 08:00:00 -2,8 -4,4 -3,6 2,2 8,6 13 7 21 11 E 1026,6 5 0 0,0
20.01.2017 07:00:00 -2,9 -4,0 -5,1 2,3 8,6 13 7 18 10 E 1026,5 5 0 0,0
20.01.2017 06:00:00 -3,2 -4,2 -5,4 2,4 8,6 10 5 14 8 E 1026,7 5 0 0,0
20.01.2017 05:00:00 -4,5 -6,2 -5,4 2,4 8,7 4 2 6 3 E 1027,2 6 0 0,0
20.01.2017 04:00:00 -3,7 -5,2 -5,1 2,4 8,7 3 2 8 4 ESE 1027,3 8 0 0,0
20.01.2017 03:00:00 -3,2 -5,7 -4,8 2,5 8,7 5 3 6 4 ENE 1027,2 11 0 0,0
20.01.2017 02:00:00 -2,9 -5,9 -4,7 2,6 8,7 5 3 11 6 E 1027,4 13 0 0,0
20.01.2017 01:00:00 -2,2 -5,2 -3,6 2,7 8,8 8 5 11 6 ENE 1027,6 12 0 0,0
20.01.2017 00:00:00 -2,2 -5,5 -3,4 2,7 8,8 8 4 12 6 E 1027,9 14 0 0,0
19.01.2017 23:00:00 -1,9 -5,7 -2,9 2,7 8,8 6 4 19 10 ENE 1028,3 16 0 0,0
19.01.2017 22:00:00 -1,3 -5,3 -1,9 2,7 8,8 13 7 20 11 E 1028,4 16 0 0,0
19.01.2017 21:00:00 -0,9 -5,1 -2,3 2,8 8,8 11 6 22 12 E 1028,5 18 0 0,0
19.01.2017 20:00:00 -0,8 -5,8 -2,6 2,8 8,9 8 4 11 6 E 1028,3 20 0 0,0
19.01.2017 19:00:00 -0,9 -6,1 -2,6 2,8 8,9 8 4 9 5 E 1028,1 20 0 0,0
19.01.2017 18:00:00 0,2 -6,0 -0,9 2,7 8,9 6 3 18 10 E 1027,7 20 0 0,0
19.01.2017 17:00:00 1,9 -5,5 2,2 2,7 8,9 9 5 20 11 E 1027,2 20 0 0,0
19.01.2017 16:00:00 2,0 -4,3 2,0 2,7 9,0 10 6 19 11 E 1027,0 20 0 0,0
19.01.2017 15:00:00 1,0 -3,3 1,4 2,7 9,0 13 7 25 13 E 1027,0 19 0 0,0
19.01.2017 14:00:00 0,3 -4,2 0,4 2,7 9,0 12 7 21 11 ESE 1027,0 17 0 0,0
19.01.2017 13:00:00 -0,8 -5,4 -0,7 2,7 9,0 10 5 17 9 ESE 1027,5 10 0 0,0
19.01.2017 12:00:00 -1,7 -5,4 -1,6 2,7 9,1 8 4 14 8 ESE 1028,2 15 0 0,0
19.01.2017 11:00:00 -2,3 -4,6 -2,3 2,8 9,1 6 3 14 7 E 1028,1 10 0 0,0
19.01.2017 10:00:00 -2,7 -5,5 -2,9 2,8 9,1 5 3 7 4 E 1027,8 13 0 0,0
19.01.2017 09:00:00 -3,2 -6,2 -3,4 2,9 9,1 3 2 10 5 ESE 1027,3 10 0 0,0
19.01.2017 08:00:00 -3,6 -6,6 -3,7 3,0 9,1 6 4 11 6 ESE 1027,2 14 0 0,0
19.01.2017 07:00:00 -3,9 -6,8 -4,7 3,1 9,2 8 5 14 8 ESE 1027,3 15 0 0,0
19.01.2017 06:00:00 -4,8 -6,5 -5,2 3,2 9,2 9 5 13 7 E 1027,2 9 0 0,0
19.01.2017 05:00:00 -4,5 -7,1 -5,1 3,3 9,2 9 5 14 8 E 1027,8 13 0 0,0
19.01.2017 04:00:00 -4,2 -6,8 -4,7 3,4 9,2 8 4 11 6 ESE 1028,1 14 0 0,0
19.01.2017 03:00:00 -3,7 -5,5 -4,6 3,5 9,2 8 5 11 6 ESE 1028,3 12 0 0,0
19.01.2017 02:00:00 -3,2 -6,0 -4,0 3,6 9,3 8 4 12 6 E 1028,2 15 0 0,0
19.01.2017 01:00:00 -2,8 -6,1 -3,8 3,7 9,3 8 5 13 7 E 1028,5 17 0 0,0
19.01.2017 00:00:00 -2,5 -6,2 -3,4 3,7 9,4 8 4 11 6 ENE 1028,8 20 0 0,0
18.01.2017 23:00:00 -2,6 -7,0 -3,9 3,8 9,4 5 3 8 4 ENE 1028,8 20 0 0,0
18.01.2017 22:00:00 -1,7 -7,0 -2,6 3,9 9,4 6 4 11 6 ENE 1028,8 20 0 0,0
18.01.2017 21:00:00 -0,8 -7,4 -1,1 3,9 9,4 4 2 10 5 ESE 1029,0 20 0 0,0
18.01.2017 20:00:00 -0,4 -7,4 -0,5 3,9 9,4 5 3 12 6 E 1028,9 20 0 0,0
18.01.2017 19:00:00 -0,2 -8,2 -0,4 3,9 9,5 4 2 16 9 E 1028,4 20 0 0,0
18.01.2017 18:00:00 -0,1 -7,8 -0,1 3,9 9,5 8 4 21 11 ENE 1028,1 20 0 0,0
18.01.2017 17:00:00 0,1 -7,7 0,4 3,8 9,5 7 4 14 8 E 1028,0 20 0 0,0
18.01.2017 16:00:00 0,3 -7,7 0,8 3,6 9,6 6 4 16 9 E 1027,5 20 0 0,0
18.01.2017 15:00:00 0,4 -7,4 1,9 3,5 9,6 3 1 23 13 NE 1027,3 20 14 0,0
18.01.2017 14:00:00 1,9 -6,4 5,6 3,5 9,6 5 3 19 10 ESE 1027,1 20 60 0,0
18.01.2017 13:00:00 0,6 -6,3 3,1 3,5 9,6 9 5 26 14 E 1027,5 20 60 0,0
18.01.2017 12:00:00 -0,6 -6,4 1,2 3,6 9,6 15 8 34 18 ENE 1028,2 19 60 0,0
18.01.2017 11:00:00 -1,5 -6,3 -0,8 3,7 9,6 17 9 38 21 ENE 1028,5 20 60 0,0
18.01.2017 10:00:00 -2,3 -6,5 -2,6 3,8 9,7 21 11 38 20 ENE 1028,5 19 60 0,0
18.01.2017 09:00:00 -3,0 -6,5 -3,6 3,9 9,7 15 8 29 15 ENE 1028,3 20 0 0,0
18.01.2017 08:00:00 -3,0 -6,6 -3,6 4,1 9,7 12 7 26 14 NE 1028,0 20 0 0,0
18.01.2017 07:00:00 -3,1 -7,1 -3,6 4,2 9,7 13 7 26 14 NNE 1027,8 20 0 0,0
18.01.2017 06:00:00 -3,0 -7,3 -3,5 4,4 9,7 11 6 26 14 NE 1028,0 20 0 0,0
18.01.2017 05:00:00 -2,9 -7,8 -3,4 4,5 9,7 11 6 26 14 NNE 1028,4 20 0 0,0
18.01.2017 04:00:00 -2,7 -7,8 -3,3 4,7 9,7 14 8 36 19 NNE 1028,7 20 0 0,0
18.01.2017 03:00:00 -2,3 -7,2 -2,6 4,8 9,7 16 9 44 24 NE 1028,7 20 0 0,0
18.01.2017 02:00:00 -1,5 -6,1 -1,9 5,1 9,8 21 11 45 24 ENE 1028,7 19 0 0,0
18.01.2017 01:00:00 -0,7 -5,5 -1,2 5,2 9,8 23 12 46 25 ENE 1028,5 20 0 0,0
18.01.2017 00:00:00 -0,1 -5,9 -0,5 5,4 9,8 20 11 44 24 NE 1028,6 20 0 0,0
17.01.2017 23:00:00 0,4 -6,7 0,0 5,7 9,8 20 11 40 22 NE 1028,6 20 0 0,0
17.01.2017 22:00:00 1,1 -6,5 0,6 5,9 9,8 19 10 40 21 NE 1029,5 20 0 0,0
17.01.2017 21:00:00 1,3 -6,3 0,6 6,1 9,8 21 12 42 23 NNE 1029,3 20 0 0,0
17.01.2017 20:00:00 1,2 -6,4 0,2 6,3 9,8 15 8 26 14 NNE 1029,5 20 0 0,0
17.01.2017 19:00:00 1,2 -7,1 0,6 6,5 9,8 10 5 23 12 NE 1029,5 20 0 0,0
17.01.2017 18:00:00 2,5 -7,2 1,8 6,5 9,8 13 7 26 14 NNE 1028,9 20 0 0,0
17.01.2017 17:00:00 4,7 -7,5 4,1 6,6 9,9 15 8 34 18 NE 1028,9 20 50 0,0
17.01.2017 16:00:00 5,9 -7,4 5,8 6,4 9,9 18 10 35 19 NE 1028,7 20 60 0,0
17.01.2017 15:00:00 5,9 -7,4 9,8 6,1 9,8 18 10 35 19 NNE 1028,7 20 60 0,0
17.01.2017 14:00:00 5,4 -5,9 8,7 5,9 9,9 13 7 29 16 NE 1029,3 20 60 0,0
17.01.2017 13:00:00 4,1 -4,6 7,4 5,7 9,9 13 7 29 15 NE 1029,8 20 60 0,0
17.01.2017 12:00:00 2,9 -3,9 4,0 5,8 9,8 15 8 32 17 NE 1030,5 20 60 0,0
17.01.2017 11:00:00 1,8 -3,7 3,0 6,0 9,9 21 11 37 20 ENE 1030,4 20 60 0,0
17.01.2017 10:00:00 0,8 -3,3 -0,2 6,2 9,9 13 7 24 13 NE 1030,1 20 58 0,0
17.01.2017 09:00:00 -0,6 -2,3 -1,2 6,5 9,8 9 5 18 10 NE 1029,4 20 0 0,0
17.01.2017 08:00:00 -0,5 -2,2 -1,0 6,7 9,8 9 5 17 9 NE 1029,2 19 0 0,0
17.01.2017 07:00:00 0,1 -2,0 -0,5 7,0 9,8 9 5 21 11 ENE 1028,7 20 0 0,0
17.01.2017 06:00:00 0,6 -1,8 0,0 7,4 9,8 9 5 19 11 ENE 1028,3 20 0 0,0
17.01.2017 05:00:00 1,2 -1,7 0,6 7,6 9,8 10 5 16 9 ENE 1028,3 20 0 0,0

tt = Température de l'air
td = dewpoint
tt 5cm = Température de l'air 5cm
tt -20cm = Température de l'air -20cm
tt -100cm = Température de l'air -100cm
ff = Vitesse du vent
fx = gusts
dd = Direction du vent
ppp = reduced air pressure
vv = visibility
sd = Ensoleillement
rr = Quantités de précipitations

stations d'obs. à proximité